Date String (YYYY-MM-DD hh:mm:ss) UTC,Instrument flags,absolute air pressure of the measurement (hPa),sample flow rate (lpm),inlet stack bypass flow (lpm),air temperature of the measurement (°C),ambient temperature measured by the external sensor (°C),aerosol sample conditioner tube jacket temperature (°C),OPC LED temperature (°C),internal box temperature (°C),relative humidity of the measurement (%),span deviation,mass concentration of particles derived from Lorenz-Mie calculation of OPC scattering (μg/m³),mass concentration of particles derived from Lorenz-Mie calculation of OPC scattering (μg/m³),mass concentration of particles derived from Lorenz-Mie calculation of OPC scattering (μg/m³)
DateTimeUTC,F1_M11,P_M11,Q1_M11,Q2_M11,T1_M11,T2_M11,T3_M11,T4_M11,T5_M11,U1_M11,ZSPAN_M11,X0_M11,X2_M11,X1_M11
2023-07-05 03:00:00,SystemResetWarning,0836.5,5.00,000.00,029.7,027.6,000.0,038.4,031.1,32.5,0000.0,0009.63,0004.59,0003.97
2023-07-05 03:01:00,SystemResetWarning,0836.5,5.01,000.00,029.7,027.8,000.0,038.4,031.2,32.5,0000.0,0009.72,0004.65,0004.00
2023-07-05 03:02:00,SystemResetWarning,0836.5,5.00,000.00,029.8,028.0,000.0,038.4,031.2,32.3,0000.0,0009.63,0004.65,0004.04
2023-07-05 03:03:00,SystemResetWarning,0836.6,5.00,000.00,029.8,028.1,000.0,038.4,031.2,32.2,0000.0,0009.54,0004.65,0004.08
2023-07-05 03:04:00,SystemResetWarning,0836.6,5.00,000.00,029.8,028.2,000.0,038.4,031.2,32.1,0000.0,0009.61,0004.70,0004.12
2023-07-05 03:05:00,SystemResetWarning,0836.6,4.99,000.00,029.8,028.3,000.0,038.4,031.3,32.0,0000.0,0009.67,0004.70,0004.14
2023-07-05 03:06:00,SystemResetWarning,0836.6,5.00,000.00,029.8,028.4,000.0,038.4,031.3,31.8,0000.0,0009.70,0004.74,0004.16
2023-07-05 03:07:00,SystemResetWarning,0836.7,5.01,000.00,029.8,028.4,000.0,038.4,031.3,31.7,0000.0,0009.58,0004.76,0004.16
2023-07-05 03:08:00,SystemResetWarning,0836.7,5.00,000.00,029.8,028.5,000.0,038.4,031.4,31.6,0000.0,0008.24,0004.78,0004.15
2023-07-05 03:09:00,SystemResetWarning,0836.7,5.00,000.00,029.9,028.5,000.0,038.4,031.4,31.6,0000.0,0008.28,0004.80,0004.15
2023-07-05 03:10:00,SystemResetWarning,0836.8,5.00,000.00,029.9,028.6,000.0,038.4,031.4,31.6,0000.1,0008.28,0004.79,0004.15
2023-07-05 03:11:00,SystemResetWarning,0836.8,5.00,000.00,029.9,028.6,000.0,038.4,031.4,31.3,-000.2,0008.11,0004.75,0004.13
2023-07-05 03:12:00,SystemResetWarning,0836.8,5.00,000.00,029.9,028.7,000.0,038.4,031.4,31.2,0000.1,0008.13,0004.72,0004.10
2023-07-05 03:13:00,SystemResetWarning,0836.9,5.00,000.00,030.0,028.7,000.0,038.4,031.5,31.0,-000.0,0008.57,0004.70,0004.07
2023-07-05 03:14:00,SystemResetWarning,0837.0,5.00,000.00,030.0,028.7,000.0,038.4,031.5,30.9,0000.0,0008.55,0004.67,0004.04
2023-07-05 03:15:00,SystemResetWarning,0837.0,5.00,000.00,030.0,028.7,000.0,038.5,031.5,30.9,0000.0,0008.62,0004.63,0004.00
2023-07-05 03:16:00,SystemResetWarning,0836.9,5.00,000.00,030.0,028.8,000.0,038.5,031.5,30.9,0000.0,0008.57,0004.62,0003.98
2023-07-05 03:17:00,SystemResetWarning,0837.0,5.00,000.00,030.0,028.8,000.0,038.5,031.6,30.9,0000.0,0008.52,0004.58,0003.94
2023-07-05 03:18:00,SystemResetWarning,0837.1,4.99,000.00,030.0,028.7,000.0,038.5,031.6,30.7,0000.0,0008.41,0004.52,0003.90
2023-07-05 03:19:00,SystemResetWarning,0837.2,5.00,000.00,030.0,027.0,000.0,038.4,031.3,30.6,0000.0,0008.23,0004.44,0003.87
2023-07-05 03:20:00,SystemResetWarning,0837.2,5.00,000.00,029.9,025.5,000.0,038.3,031.1,30.5,0000.0,0008.21,0004.44,0003.87
2023-07-05 03:21:00,SystemResetWarning,0837.2,5.02,000.00,029.8,025.1,000.0,038.2,030.8,30.6,0000.0,0008.06,0004.39,0003.84
2023-07-05 03:22:00,SystemResetWarning,0837.2,5.00,000.00,029.6,025.4,000.0,038.2,030.7,30.7,0000.0,0008.07,0004.35,0003.82
2023-07-05 03:23:00,SystemResetWarning,0837.2,4.99,000.00,029.6,025.9,000.0,038.2,030.7,31.1,0000.0,0008.10,0004.31,0003.79
2023-07-05 03:24:00,SystemResetWarning,0837.2,5.00,000.00,029.5,026.3,000.0,038.2,030.8,31.2,0000.0,0008.05,0004.30,0003.78
2023-07-05 03:25:00,SystemResetWarning,0837.1,5.01,000.00,029.5,026.7,000.0,038.2,030.9,30.9,0000.0,0007.91,0004.28,0003.75
2023-07-05 03:26:00,SystemResetWarning,0837.1,4.99,000.00,029.5,027.0,000.0,038.2,030.9,30.9,0000.0,0007.75,0004.25,0003.72
2023-07-05 03:27:00,SystemResetWarning,0837.1,4.99,000.00,029.5,027.3,000.0,038.2,031.0,30.8,0000.0,0007.60,0004.18,0003.68
2023-07-05 03:28:00,SystemResetWarning,0837.1,5.00,000.00,029.5,027.5,000.0,038.2,031.0,30.7,0000.0,0007.60,0004.15,0003.66
2023-07-05 03:29:00,SystemResetWarning,0837.2,5.01,000.00,029.6,027.7,000.0,038.2,031.1,30.7,0000.0,0007.58,0004.11,0003.64
2023-07-05 03:30:00,SystemResetWarning,0837.2,5.00,000.00,029.6,027.9,000.0,038.2,031.1,30.6,0000.0,0007.77,0004.11,0003.63
2023-07-05 03:31:00,SystemResetWarning,0837.2,4.99,000.00,029.6,028.0,000.0,038.2,031.1,30.4,0000.0,0007.90,0004.08,0003.58
2023-07-05 03:32:00,SystemResetWarning,0837.3,5.00,000.00,029.6,028.1,000.0,038.2,031.2,30.4,0000.0,0007.86,0004.04,0003.54
2023-07-05 03:33:00,SystemResetWarning,0837.3,5.00,000.00,029.6,028.2,000.0,038.2,031.2,30.5,0000.0,0007.87,0004.02,0003.50
2023-07-05 03:34:00,SystemResetWarning,0837.5,5.00,000.00,029.7,028.3,000.0,038.2,031.2,30.5,0000.0,0007.65,0003.98,0003.47
2023-07-05 03:35:00,SystemResetWarning,0837.5,5.00,000.00,029.7,028.4,000.0,038.2,031.2,30.5,0000.0,0007.30,0003.93,0003.44
2023-07-05 03:36:00,SystemResetWarning,0837.6,5.00,000.00,029.7,028.4,000.0,038.2,031.3,30.4,0000.0,0007.15,0003.90,0003.43
2023-07-05 03:37:00,SystemResetWarning,0837.6,5.00,000.00,029.7,028.5,000.0,038.2,031.3,30.4,0000.0,0007.59,0003.87,0003.41
2023-07-05 03:38:00,SystemResetWarning,0837.7,5.00,000.00,029.7,028.5,000.0,038.2,031.3,30.3,0000.0,0008.27,0003.85,0003.39
2023-07-05 03:39:00,SystemResetWarning,0837.7,5.00,000.00,029.8,028.6,000.0,038.3,031.3,30.3,0000.0,0008.58,0003.83,0003.37
2023-07-05 03:40:00,SystemResetWarning,0837.6,5.00,000.00,029.8,028.6,000.0,038.3,031.4,30.3,0000.0,0008.55,0003.81,0003.36
2023-07-05 03:41:00,SystemResetWarning,0837.7,5.00,000.00,029.8,028.6,000.0,038.3,031.4,30.1,0000.0,0008.30,0003.77,0003.34
2023-07-05 03:42:00,SystemResetWarning,0837.7,5.00,000.00,029.8,028.7,000.0,038.3,031.4,30.0,0000.0,0008.10,0003.75,0003.34
2023-07-05 03:43:00,SystemResetWarning,0837.8,5.00,000.00,029.9,028.7,000.0,038.3,031.4,30.0,0000.0,0008.10,0003.72,0003.34
2023-07-05 03:44:00,SystemResetWarning,0837.8,5.00,000.00,029.9,028.7,000.0,038.3,031.5,29.9,0000.0,0008.00,0003.69,0003.33
2023-07-05 03:45:00,SystemResetWarning,0837.9,5.00,000.00,029.9,028.8,000.0,038.4,031.5,30.0,0000.0,0007.96,0003.68,0003.33
2023-07-05 03:46:00,SystemResetWarning,0838.0,5.00,000.00,029.9,028.8,000.0,038.4,031.5,30.0,0000.0,0007.95,0003.68,0003.32
2023-07-05 03:47:00,SystemResetWarning,0838.0,5.00,000.00,030.0,028.8,000.0,038.4,031.5,30.1,0000.0,0007.89,0003.66,0003.31
2023-07-05 03:48:00,SystemResetWarning,0837.9,4.98,000.00,030.0,027.7,000.0,038.3,031.5,30.1,0000.0,0007.39,0003.65,0003.31
2023-07-05 03:49:00,SystemResetWarning,0837.8,5.00,000.00,029.9,025.8,000.0,038.2,031.2,30.0,0000.0,0006.28,0003.65,0003.32
2023-07-05 03:50:00,SystemResetWarning,0837.7,5.00,000.00,029.8,025.2,000.0,038.1,030.9,30.3,0000.0,0005.69,0003.66,0003.33
2023-07-05 03:51:00,SystemResetWarning,0837.7,5.01,000.00,029.6,025.3,000.0,038.1,030.7,30.6,0000.0,0005.51,0003.66,0003.32
2023-07-05 03:52:00,SystemResetWarning,0837.7,5.01,000.00,029.5,025.7,000.0,038.2,030.7,31.0,0000.0,0005.56,0003.66,0003.31
2023-07-05 03:53:00,SystemResetWarning,0837.7,4.99,000.00,029.5,026.2,000.0,038.2,030.8,31.2,0000.0,0005.45,0003.65,0003.32
2023-07-05 03:54:00,SystemResetWarning,0837.7,4.99,000.00,029.5,026.6,000.0,038.2,030.9,31.2,0000.0,0005.57,0003.67,0003.32
2023-07-05 03:55:00,SystemResetWarning,0837.9,5.01,000.00,029.5,026.9,000.0,038.2,030.9,31.3,0000.0,0005.78,0003.69,0003.32
2023-07-05 03:56:00,SystemResetWarning,0838.0,5.00,000.00,029.5,027.2,000.0,038.1,031.0,31.4,0000.0,0006.07,0003.73,0003.33
2023-07-05 03:57:00,SystemResetWarning,0838.2,4.98,000.00,029.5,027.5,000.0,038.1,031.0,31.4,0000.0,0006.36,0003.79,0003.34
2023-07-05 03:58:00,SystemResetWarning,0838.2,5.02,000.00,029.5,027.7,000.0,038.1,031.0,31.3,0000.0,0006.62,0003.85,0003.35
2023-07-05 03:59:00,SystemResetWarning,0838.3,5.01,000.00,029.5,027.9,000.0,038.1,031.1,31.4,0000.0,0007.33,0003.90,0003.36
